OPS 4682 DEB, 1389

Orbit data source: Space-Track

OPS 4682 DEB, 1389 is space debris in LEO originally from a launch on Sat, 03 Apr 1965 UTC launched from the Air Force Western Test Range (AFWTR). Debris objects in space refer to the collection of defunct objects orbiting the Earth. Examples of debris include non-operational satellites, rocket bodies, and fragments generated from explosions, collisions, or faulty payload assembly.

Loading next visibility...
Identifier
1389, 1965-027D
Orbit
LEO
Country
Flag of USUS
Related business
Manufacturer
Unknown
Mission
Spacecraft
Bus & Motor
Unknown
Mass
7 kg wet, 7 kg dry
Launch date (UTC)
1965-04-03 (60 years ago)
Launch vehicle
Unknown
Launch site
Air Force Western Test Range (AFWTR)
Object type
Payload
Rocket body
Debris
Shape & HBR
Half Cyl, 1.0 m
Radar Cross Section
2.370 m², Medium (>0.1 m² and < 1m²)

Expand to show TLE details & history
Last TLE update: 1 day ago

TLE from 1 day ago
0 OPS 4682 DEB
1 01389U 65027D   25259.93245428  .00000553  00000-0  14707-2 0  9995
2 01389  89.8525 223.2758 0022978 156.4680 270.9564 13.14307516874785
Epoch: 2025-09-16T22:22Z
TLE epoch observation values (Epoch: 2025-09-16T22:22:44.049Z)
Latitude
67.23614°
Longitude
-108.17366°
Altitude
1,218.002 km
Speed
7.251 km/s
True Right ascension
14h 54m 30s
True Declination
67° 07' 14"
Sunlit
Object was in daylight at epoch
Visualization orbit readout
Latitude
Unknown
Longitude
Unknown
Altitude
Unknown
Speed
Unknown
Apparent Right ascension
Unknown
Apparent Declination
Unknown
Sunlit
N/A
Visualization observer readout
Local Sidereal Time
19:10:14
Azimuth
Unknown
Elevation
Unknown
Doppler factor
Unknown
Orbital elements
Apogee altitude
1,221.065 km
Perigee altitude
1,186.222 km
Semi-major axis
7,581.781 km
Eccentricity
0.0023
Inclination
89.8525°
RAAN
223.2758°
Arg. of periapsis
156.468°
True anomaly
270.69312°
Mean anomaly
270.9564°
Eccentric anomaly
270.82476°
Mean motion
3.28766 °/min
Orbital period
109.5 mins
BSTAR
0.0014707
Loading maneuver chart data...
Computing Atmospheric mass density...
Loading historical data...
Loading historical data...
Loading historical data...
Loading historical data...
Loading historical data...
Loading historical data...
Loading historical data...

Documentation

Showing up to 5 results
|